Grand Junction, CO

10:50 PM MST on November 17, 2019 (GMT -0700)
Walker

Weather History for KGJT - April, 2019

Change the Weather History Date:

Monday, April 29, 2019

  Actual Average Record
Temperature  
Mean Temperature 56 °F 56 °F  
Max Temperature 64 °F 70 °F 89 °F (1992)
Min Temperature 47 °F 42 °F 24 °F (1996)
Degree Days  
Heating Degree Days 9 9  
Month to date heating degree days 275 393  
Since 1 July heating degree days 5383 5425  
Cooling Degree Days 0 0  
Month to date cooling degree days 1 0  
Year to date cooling degree days 1 0  
Growing Degree Days 5 (Base 50)    
Moisture  
Dew Point 39 °F    
Average Humidity 63    
Maximum Humidity 93    
Minimum Humidity 32    
Precipitation  
Precipitation 0.37 in 0.03 in 0.80 in (1898)
Month to date precipitation 0.83 0.88  
Year to date precipitation 4.56 2.92  
Snow  
Snow 0.00 in 0.00 in 1.50 in (1962)
Month to date snowfall T 0.9  
Since 1 July snowfall 17.4 19.0  
Snow Depth 0.00 in    
Sea Level Pressure  
Sea Level Pressure 29.75 in    
Wind  
Wind Speed 10 mph (ESE)    
Max Wind Speed 36 mph    
Max Gust Speed 44 mph    
Visibility 9 miles    
Events Rain , Thunderstorm    
T = Trace of Precipitation, MM = Missing Value Source: NWS Daily Summary

Daily Weather History Graph

Daily Weather History Graph

Search for Another Location

Airport or City:

Astronomy

Apr. 29, 2019 Rise Set
Actual Time 6:18 AM MDT 8:05 PM MDT
Civil Twilight 5:49 AM MDT 8:33 PM MDT
Nautical Twilight 5:15 AM MDT 9:08 PM MDT
Astronomical Twilight 4:38 AM MDT 9:46 PM MDT
Moon 4:03 AM MDT (4/29) 3:04 PM MDT (4/29)
Length of Visible Light 14h 43m
Length of Day
13h 46m
Waning Crescent, 25% of the Moon is Illuminated
Apr 29
Waning Crescent
May 4
New
May 11
First Quarter
May 18
Full
May 26
Last Quarter

Hourly Weather History & Observations

Time (MDT) Temp. Dew Point Humidity Pressure Visibility Wind Dir Wind Speed Gust Speed Precip Events Conditions
12:53 AM 54.0 °F 37.0 °F 53% 29.73 in 10.0 mi SW 3.5 mph - N/A   Mostly Cloudy
1:53 AM 55.0 °F 26.1 °F 33% 29.71 in 10.0 mi ENE 18.4 mph 24.2 mph N/A   Mostly Cloudy
2:53 AM 52.0 °F 24.1 °F 34% 29.73 in 10.0 mi ENE 10.4 mph - N/A   Partly Cloudy
3:53 AM 53.1 °F 26.1 °F 35% 29.73 in 10.0 mi Calm Calm - N/A   Mostly Cloudy
4:53 AM 51.1 °F 27.0 °F 39% 29.72 in 10.0 mi ENE 10.4 mph - N/A   Clear
5:53 AM 52.0 °F 28.0 °F 40% 29.72 in 10.0 mi ENE 11.5 mph - N/A   Mostly Cloudy
6:53 AM 50.0 °F 28.9 °F 44% 29.75 in 10.0 mi WNW 3.5 mph - N/A   Overcast
7:53 AM 51.1 °F 28.0 °F 41% 29.77 in 10.0 mi Calm Calm - N/A   Overcast
8:53 AM 51.1 °F 30.0 °F 44% 29.77 in 10.0 mi South 5.8 mph - 0.00 in Rain Light Rain
9:53 AM 54.0 °F 30.9 °F 41% 29.75 in 10.0 mi SE 9.2 mph - 0.00 in Rain Light Rain
10:53 AM 55.9 °F 37.0 °F 49% 29.78 in 9.0 mi West 5.8 mph - 0.00 in   Overcast
12:53 PM 55.9 °F 39.9 °F 55% 29.75 in 10.0 mi Calm Calm - N/A   Overcast
1:53 PM 57.0 °F 37.9 °F 49% 29.74 in 10.0 mi West 3.5 mph - N/A   Overcast
2:53 PM 62.1 °F 39.9 °F 44% 29.70 in 10.0 mi ESE 10.4 mph - 0.00 in   Scattered Clouds
3:53 PM 62.1 °F 41.0 °F 46% 29.66 in 10.0 mi SE 20.7 mph 25.3 mph N/A   Mostly Cloudy
4:53 PM 62.1 °F 41.0 °F 46% 29.62 in 10.0 mi SE 17.3 mph 25.3 mph N/A   Mostly Cloudy
5:43 PM 57.0 °F 45.0 °F 64% 29.77 in 10.0 mi South 21.9 mph 32.2 mph 0.00 in Thunderstorm Overcast
5:48 PM 53.6 °F 44.6 °F 72% 29.81 in 7.0 mi NW 31.1 mph 43.7 mph 0.00 in Rain , Thunderstorm Light Rain
5:55 PM 48.9 °F 46.0 °F 90% 29.83 in 3.0 mi NW 27.6 mph 43.7 mph 0.01 in Rain , Thunderstorm Heavy Thunderstorms and Rain
6:17 PM 48.9 °F 46.9 °F 93% 29.85 in 5.0 mi WNW 10.4 mph 21.9 mph 0.04 in Rain Rain
6:53 PM 48.9 °F 46.9 °F 93% 29.76 in 7.0 mi ENE 6.9 mph - 0.08 in Rain Light Rain
7:53 PM 48.9 °F 46.0 °F 90% 29.72 in 10.0 mi ESE 13.8 mph - 0.01 in   Overcast
8:53 PM 48.0 °F 46.0 °F 93% 29.78 in 3.0 mi SSW 5.8 mph - 0.07 in Rain Heavy Rain
9:53 PM 48.0 °F 45.0 °F 89% 29.78 in 8.0 mi ENE 8.1 mph - 0.19 in Rain Light Rain
10:12 PM 48.0 °F 46.0 °F 93% 29.87 in 10.0 mi ESE 6.9 mph - 0.00 in   Overcast
10:29 PM 46.9 °F 45.0 °F 93% 29.84 in 10.0 mi ESE 10.4 mph - 0.00 in Thunderstorm Mostly Cloudy
10:38 PM 46.9 °F 45.0 °F 93% 29.84 in 10.0 mi East 10.4 mph - 0.00 in   Mostly Cloudy
10:53 PM 48.0 °F 45.0 °F 89% 29.74 in 10.0 mi SE 10.4 mph - 0.00 in   Mostly Cloudy
11:53 PM 46.9 °F 45.0 °F 93% 29.72 in 10.0 mi ESE 8.1 mph - 0.00 in   Scattered Clouds